Pluckemin, NJ

7:52 AM EST on February 06, 2016 (GMT -0500)
Somerset

Weather History for KSMQ - April, 2014

Change the Weather History Date:

Saturday, April 26, 2014

  Actual Average Record
Temperature  
Mean Temperature 56 °F -  
Max Temperature 69 °F 63 °F 85 °F (1942)
Min Temperature 45 °F 39 °F 30 °F (1963)
Degree Days  
Heating Degree Days 8    
Growing Degree Days 6 (Base 50)    
Moisture  
Dew Point 44 °F    
Average Humidity 75    
Maximum Humidity 93    
Minimum Humidity 33    
Precipitation  
Precipitation 0.48 in - - ()
Sea Level Pressure  
Sea Level Pressure 29.74 in    
Wind  
Wind Speed 6 mph (NNW)    
Max Wind Speed 9 mph    
Max Gust Speed 20 mph    
Visibility 8 miles    
Events Rain , Thunderstorm    
Averages and records for this station are not official NWS values.
T = Trace of Precipitation, MM = Missing Value Source: NWS Daily Summary

Daily Weather History Graph

Daily Weather History Graph

Search for Another Location

Airport or City:

Trip Planner

Search our weather history database for the weather conditions in past years. The results will help you decide how hot, cold, wet, or windy it might be!

Date:

Astronomy

Apr. 26, 2014 Rise Set
Actual Time 6:04 AM EDT 7:49 PM EDT
Civil Twilight 5:34 AM EDT 8:18 PM EDT
Nautical Twilight 4:59 AM EDT 8:54 PM EDT
Astronomical Twilight 4:21 AM EDT 9:32 PM EDT
Moon 4:27 AM EDT (4/26) 5:14 PM EDT (4/26)
Length of Visible Light 14h 43m
Length of Day
13h 45m
Waning Crescent, 8% of the Moon is Illuminated
Apr 26
Waning Crescent
Apr 29
New
May 6
First Quarter
May 14
Full
May 21
Last Quarter

Hourly Weather History & Observations

Time (EDT) Temp. Windchill Dew Point Humidity Pressure Visibility Wind Dir Wind Speed Gust Speed Precip Events Conditions
12:53 AM 46.0 °F 43.1 °F 43.0 °F 89% 29.72 in 4.0 mi East 5.8 mph - 0.14 in Rain Rain
1:23 AM 46.0 °F 43.1 °F 43.0 °F 89% 29.73 in 10.0 mi NNW 5.8 mph - 0.01 in Rain Light Rain
1:53 AM 45.0 °F 41.2 °F 43.0 °F 93% 29.73 in 3.0 mi NW 6.9 mph - 0.12 in Rain Rain
2:15 AM 45.0 °F 42.6 °F 43.0 °F 93% 29.71 in 3.0 mi North 4.6 mph - 0.08 in Rain Rain
2:25 AM 46.0 °F 43.9 °F 43.0 °F 89% 29.70 in 4.0 mi North 4.6 mph - 0.10 in Rain Light Rain
2:53 AM 46.0 °F 43.1 °F 43.0 °F 89% 29.70 in 3.0 mi North 5.8 mph - 0.12 in Rain Light Rain
3:01 AM 46.0 °F 43.9 °F 43.0 °F 89% 29.70 in 2.5 mi North 4.6 mph - 0.01 in Rain Light Rain
3:10 AM 46.0 °F 43.1 °F 44.1 °F 93% 29.70 in 4.0 mi North 5.8 mph - 0.01 in Rain Light Rain
3:32 AM 46.0 °F 43.1 °F 44.1 °F 93% 29.71 in 2.5 mi NNW 5.8 mph - 0.02 in Rain Light Rain
3:38 AM 46.0 °F 43.1 °F 44.1 °F 93% 29.71 in 2.5 mi NNW 5.8 mph - 0.02 in Rain Light Rain
3:53 AM 46.0 °F 43.9 °F 44.1 °F 93% 29.71 in 3.0 mi NNW 4.6 mph - 0.03 in Rain Light Rain
4:53 AM 46.9 °F - 44.1 °F 90% 29.71 in 6.0 mi NW 4.6 mph - 0.00 in   Overcast
5:02 AM 46.9 °F - 44.1 °F 90% 29.71 in 5.0 mi NW 4.6 mph - 0.00 in Rain Light Rain
5:53 AM 46.9 °F - 45.0 °F 93% 29.73 in 9.0 mi WNW 3.5 mph - 0.01 in   Overcast
6:27 AM 46.9 °F - 45.0 °F 93% 29.74 in 8.0 mi WNW 3.5 mph - N/A   Overcast
6:53 AM 46.9 °F - 45.0 °F 93% 29.75 in 8.0 mi Variable 3.5 mph - N/A   Overcast
7:53 AM 48.9 °F - 44.1 °F 83% 29.77 in 10.0 mi Variable 4.6 mph - N/A   Scattered Clouds
8:53 AM 53.1 °F - 45.0 °F 74% 29.78 in 10.0 mi NW 8.1 mph - N/A   Clear
9:53 AM 57.0 °F - 41.0 °F 55% 29.77 in 10.0 mi NW 9.2 mph - N/A   Clear
10:53 AM 60.1 °F - 41.0 °F 49% 29.78 in 10.0 mi North 8.1 mph - N/A   Clear
11:53 AM 63.0 °F - 39.0 °F 41% 29.77 in 10.0 mi NNW 9.2 mph 19.6 mph N/A   Scattered Clouds
12:53 PM 64.0 °F - 41.0 °F 43% 29.73 in 10.0 mi Variable 5.8 mph - N/A   Partly Cloudy
1:53 PM 68.0 °F - 41.0 °F 37% 29.71 in 10.0 mi WSW 8.1 mph - N/A   Clear
2:53 PM 68.0 °F - 37.9 °F 33% 29.70 in 10.0 mi SW 9.2 mph 16.1 mph N/A   Partly Cloudy
3:53 PM 64.9 °F - 39.0 °F 39% 29.70 in 10.0 mi WNW 4.6 mph - 0.00 in Rain Light Rain
4:53 PM 64.0 °F - 42.1 °F 45% 29.70 in 5.0 mi SSW 9.2 mph - 0.01 in Rain Light Rain
5:53 PM 59.0 °F - 53.1 °F 81% 29.70 in 10.0 mi Calm Calm - 0.04 in   Mostly Cloudy
6:23 PM 61.0 °F - 48.9 °F 64% 29.71 in 10.0 mi North 3.5 mph - 0.01 in Thunderstorm Overcast
6:38 PM 60.1 °F - 53.1 °F 78% 29.70 in 10.0 mi ENE 3.5 mph - 0.01 in   Overcast
6:53 PM 60.1 °F - 48.0 °F 64% 29.72 in 10.0 mi ENE 8.1 mph 18.4 mph 0.01 in   Mostly Cloudy
7:53 PM 53.1 °F - 46.0 °F 77% 29.78 in 10.0 mi NE 9.2 mph - N/A   Scattered Clouds
8:53 PM 51.1 °F - 45.0 °F 80% 29.81 in 10.0 mi Variable 3.5 mph - 0.00 in   Overcast
9:53 PM 51.1 °F - 45.0 °F 80% 29.86 in 10.0 mi East 4.6 mph - N/A   Overcast
10:53 PM 50.0 °F - 45.0 °F 83% 29.87 in 10.0 mi Calm Calm - N/A   Overcast
11:53 PM 52.0 °F - 35.1 °F 53% 29.88 in 10.0 mi NNW 8.1 mph - N/A   Scattered Clouds